SCP
13 15 14 12 11 11 11 10 9 7 7 6 5 4 4 3 2 3 3 4 4 4 4 5 7 8 6 5 4 4 4 3 1 1 1 1 1 1 1 1 1 1 2
15 15 14 13 12 12 12 11 9 7 7 7 6 5 4 3 3 3 3 4 5 5 4 5 7 8 7 5 4 4 4 3 2 1 1 1 1 1 2 1 1 2 2
14 14 14 14 13 13 12 11 9 7 6 6 6 6 5 4 3 3 4 5 5 5 5 5 7 8 7 5 5 4 4 3 2 1 1 1 1 1 2 2 2 2 2
11 12 12 13 13 13 12 11 9 8 7 6 6 5 5 5 4 3 4 5 5 5 5 6 7 7 6 5 4 4 4 3 2 1 1 1 1 1 2 2 2 2 1
8 10 11 12 13 13 11 10 10 9 8 7 6 5 5 4 4 4 4 5 6 5 5 6 7 6 5 5 4 4 4 3 2 2 1 1 1 2 2 1 1 1 1
7 9 10 11 12 11 10 10 10 9 8 7 6 5 5 4 4 4 5 6 6 5 5 6 6 5 4 4 5 5 5 4 3 2 2 2 2 2 2 1 1 1 1
9 9 10 10 10 10 8 8 9 9 9 7 6 5 5 5 5 5 6 6 6 6 6 6 5 5 4 4 4 5 5 5 4 3 2 2 2 2 2 1 1 1 1
9 9 10 9 8 7 7 7 8 9 9 8 6 5 5 5 4 5 5 6 6 6 6 5 5 5 5 4 4 4 5 5 5 4 3 2 2 2 2 2 1 1 1
7 8 9 9 7 6 6 6 7 9 10 8 6 5 5 5 5 5 6 6 7 6 5 5 6 5 5 5 5 4 4 5 5 4 4 3 2 2 2 2 2 1 1
6 6 8 9 7 6 5 6 7 9 9 7 5 4 4 5 5 6 6 7 7 5 4 5 6 6 5 4 4 4 4 5 5 5 5 4 3 2 2 2 2 2 2
6 5 6 8 7 6 5 5 6 8 8 7 5 5 5 6 6 7 7 7 6 5 4 4 5 6 5 5 5 5 5 5 5 5 5 5 4 3 3 3 3 2 2
6 6 6 7 7 6 5 5 6 7 7 7 6 6 7 8 8 8 8 7 6 5 5 4 4 4 4 5 5 5 5 6 6 5 5 6 5 5 4 3 3 3 3
7 7 7 6 6 5 5 5 6 6 7 7 7 8 9 10 10 10 9 7 5 5 5 4 4 3 4 5 5 5 6 6 6 6 6 6 6 6 5 4 4 4 4
7 6 6 6 5 5 5 5 6 7 6 7 8 10 11 11 11 10 8 6 5 4 4 4 4 4 4 4 4 4 6 6 7 6 6 6 6 6 6 5 5 5 6
6 6 6 6 6 6 5 5 6 7 8 8 10 11 12 12 11 9 7 5 4 3 3 3 4 4 4 3 3 3 4 5 6 6 6 6 5 5 5 6 6 6 7
6 6 6 7 7 7 6 5 6 8 9 11 12 13 13 13 11 8 6 5 4 3 2 2 3 3 3 3 2 2 3 4 5 6 6 6 5 5 4 5 5 6 6
6 7 8 9 8 6 6 6 7 8 10 11 12 13 13 12 9 7 5 4 3 3 2 2 2 2 2 2 1 1 2 4 5 5 6 6 6 5 5 5 5 5 5
8 9 10 10 7 5 5 6 7 7 9 10 11 11 11 10 8 6 5 4 3 3 2 2 2 2 1 1 1 1 2 4 5 6 6 6 6 6 6 6 7 6 6
9 10 10 8 5 4 4 6 6 6 7 8 8 8 9 9 8 6 5 4 3 3 3 2 2 1 1 1 0 1 2 3 4 5 6 5 6 6 6 7 8 8 8
7 7 7 6 4 4 4 6 6 6 7 7 8 8 9 9 9 8 6 5 4 3 3 3 2 2 1 1 1 1 2 3 3 4 4 4 4 4 4 5 7 8 8
5 5 4 4 5 5 5 5 6 6 6 7 7 7 8 8 8 8 8 7 5 4 3 3 3 2 2 1 1 1 2 2 2 3 3 3 2 2 2 3 5 6 6
4 4 3 4 5 5 4 4 4 4 4 4 5 5 5 6 6 6 6 5 5 4 3 3 2 2 2 2 1 1 1 1 2 2 2 2 1 1 1 1 2 3 3
3 3 4 4 5 5 5 4 4 3 3 3 3 3 3 4 4 4 3 3 4 3 2 2 2 2 2 2 1 1 0 1 1 1 1 1 1 0 0 0 1 1 1
3 3 4 5 5 6 6 5 5 4 3 3 3 3 2 3 3 3 2 2 2 2 2 1 1 1 1 2 2 1 1 0 1 1 1 1 1 1 1 1 1 1 1
3 3 4 5 6 6 6 6 6 6 5 4 4 4 3 3 2 2 2 2 2 1 1 1 1 1 1 1 1 1 1 1 1 1 1 1 1 1 2 2 2 2 2
4 4 4 5 6 6 6 7 7 7 6 6 5 5 4 4 3 2 2 2 1 1 1 1 1 1 1 1 1 1 1 1 1 1 2 2 2 2 3 3 3 3 3
Wind_Speed
10 9 9 9 9 8 7 6 5 3 2 2 2 1 1 1 1 1 2 2 1 1 1 1 1 1 1 1 2 1 1 1 1 1 1 1 2 2 2 2 2 3 4
10 9 9 8 8 8 7 6 5 4 2 2 1 1 1 1 1 1 2 2 1 0 1 1 1 1 1 1 1 1 1 1 1 1 1 1 1 0 1 2 2 2 3
10 10 9 8 8 7 7 5 5 4 3 2 1 1 1 1 1 1 1 1 1 1 1 1 1 1 1 1 1 0 1 0 1 1 0 1 1 1 0 1 2 3 2
8 8 8 8 8 7 7 6 5 4 3 2 1 1 1 1 1 1 1 1 1 1 1 1 1 1 1 0 0 1 0 1 0 0 0 0 1 1 1 0 1 2 2
8 8 7 7 8 7 7 6 5 4 3 2 2 1 1 1 1 1 1 1 1 0 1 1 1 1 1 1 0 1 0 0 0 1 0 0 0 0 1 1 1 1 1
7 8 7 7 7 7 7 7 6 4 3 2 2 1 1 1 1 1 1 1 1 1 1 1 1 1 1 1 1 1 1 0 0 1 1 0 0 0 0 1 2 1 1
7 6 6 6 6 7 7 7 6 5 3 2 2 1 1 1 1 1 1 1 1 1 0 1 1 1 1 1 1 1 1 1 1 1 1 1 0 1 1 1 1 1 1
7 6 6 6 6 6 6 7 6 5 4 3 2 1 1 0 1 0 0 0 0 1 1 1 1 1 1 1 1 1 2 1 2 2 1 1 1 1 1 1 1 1 1
6 6 6 6 6 5 5 6 6 5 4 3 3 2 1 0 1 1 0 0 1 1 1 0 1 1 1 1 2 2 2 1 2 2 2 1 1 1 1 1 1 1 1
6 6 6 6 6 5 5 5 5 5 4 3 2 2 1 1 1 1 1 1 1 1 1 1 1 1 1 1 2 2 2 2 2 2 2 1 1 2 1 1 1 1 1
5 5 5 6 6 5 5 5 5 4 4 3 2 2 1 1 1 1 1 0 0 0 1 1 1 1 2 2 2 2 2 2 2 2 2 2 2 1 2 1 1 1 1
5 6 6 6 5 5 4 4 4 4 4 3 3 2 1 1 0 0 0 0 1 1 1 2 2 2 2 2 2 2 2 2 2 2 2 2 2 2 2 2 2 2 2
6 6 6 5 5 4 4 4 3 3 3 3 3 2 1 1 1 1 1 1 1 2 2 2 2 2 2 2 2 2 2 2 2 2 2 2 2 2 2 2 2 2 2
5 5 4 4 4 4 3 3 2 3 3 3 3 3 2 2 2 1 1 2 2 2 2 2 3 2 2 1 2 2 2 2 2 1 2 2 2 2 2 2 2 2 2
5 4 3 3 3 3 3 2 2 2 2 3 3 3 3 2 2 2 2 2 2 2 2 2 2 2 2 1 2 2 2 2 2 2 2 2 1 1 2 2 1 2 2
4 3 3 3 3 2 2 2 2 2 1 2 2 2 3 3 2 2 2 2 2 2 2 2 2 2 2 0 1 1 2 2 2 2 2 2 2 3 3 3 2 2 3
3 4 4 3 2 2 1 1 1 1 2 2 2 2 3 3 3 3 2 2 2 2 2 2 2 2 1 1 1 1 2 2 2 2 2 3 2 2 2 3 4 3 4
4 4 3 2 2 1 0 0 1 1 2 2 2 2 2 2 2 2 2 2 2 2 2 2 3 2 2 3 2 3 3 3 3 3 3 3 2 3 2 2 2 3 3
4 3 2 2 2 1 0 0 0 1 1 2 2 1 1 1 2 2 2 2 2 2 2 2 2 2 2 3 3 3 3 2 3 4 3 3 3 3 3 3 3 3 3
4 3 2 2 2 1 1 0 1 1 1 1 1 1 1 1 2 2 2 2 2 3 3 2 2 2 2 3 4 4 3 2 3 2 2 4 4 3 4 4 3 4 4
3 3 3 2 2 1 1 0 1 1 2 2 2 1 1 2 1 1 1 2 2 2 3 2 2 2 2 4 6 5 3 3 3 3 2 1 3 4 5 5 4 5 4
3 3 2 2 1 1 0 1 1 2 2 2 2 2 1 2 1 1 1 2 2 2 3 2 2 2 3 3 5 7 6 4 3 3 2 1 1 3 4 4 4 5 4
2 2 2 2 1 1 0 1 1 2 2 2 2 2 2 2 1 1 2 2 2 2 2 2 3 2 2 2 4 5 5 5 3 3 2 2 3 3 4 6 6 5 4
2 1 1 1 1 0 1 1 1 1 1 2 2 2 1 1 1 1 2 2 2 2 2 2 2 2 1 1 1 2 2 3 3 3 3 4 5 5 5 4 4 4 4
1 1 1 0 0 0 0 1 1 1 2 2 2 2 2 2 1 1 2 2 1 1 2 2 2 2 2 1 1 1 2 2 2 2 3 3 3 3 3 3 3 4 4
1 1 1 1 1 1 1 1 1 2 2 2 2 2 2 2 2 2 1 1 1 1 2 2 2 1 1 1 1 1 3 4 4 3 3 4 4 4 3 3 4 4 4
Wind_Direction
144 131 127 130 128 122 120 117 116 114 127 123 131 130 114 102 92 106 113 102 80 80 75 49 88 74 66 57 55 59 72 86 117 109 92 95 122 121 128 131 132 147 151
138 133 133 134 133 132 131 125 126 124 116 92 103 126 137 148 131 95 99 120 130 168 158 108 75 87 75 67 59 62 33 66 79 126 136 141 95 64 159 148 151 146 141
148 145 144 142 136 133 135 137 128 130 122 104 86 84 106 129 109 109 109 116 143 153 51 120 102 94 87 86 94 327 102 101 350 47 125 143 143 130 117 168 139 136 134
151 146 151 148 144 142 135 126 125 126 125 130 129 145 143 136 136 133 114 101 91 108 129 108 100 77 90 102 197 116 117 125 248 311 27 141 138 150 164 237 130 141 143
150 154 160 152 149 145 140 134 125 119 118 122 109 114 110 111 98 111 118 132 127 111 114 111 114 125 124 144 232 108 94 117 228 285 354 325 248 217 160 166 165 166 161
139 156 156 150 148 141 135 132 127 123 123 123 110 109 76 85 95 103 133 174 169 168 137 128 144 174 181 187 205 200 181 180 289 334 346 279 299 266 200 165 173 170 184
141 149 151 141 139 139 137 134 132 132 133 131 110 106 92 77 107 143 160 174 160 129 129 138 150 199 188 201 208 200 200 207 230 235 261 287 285 276 279 160 185 184 197
141 148 145 141 146 139 138 134 135 139 145 145 138 124 114 176 164 110 51 97 66 122 126 148 185 234 210 207 197 213 207 201 220 242 245 264 262 238 248 193 175 206 213
141 148 142 139 136 134 130 133 136 142 147 148 144 143 126 69 73 117 159 90 53 91 81 151 207 230 235 231 208 211 215 205 212 225 225 241 264 267 254 229 191 186 224
139 128 125 127 124 129 127 129 138 143 139 138 151 144 149 159 129 145 114 82 47 32 4 1 286 249 245 234 223 222 198 213 225 231 224 226 248 268 279 262 232 194 202
124 124 120 119 124 125 131 140 145 143 138 139 133 125 140 162 180 139 135 128 98 176 242 265 276 256 243 238 224 243 224 217 226 240 228 225 235 263 283 287 275 246 217
131 126 121 118 122 126 134 139 147 151 147 143 138 137 141 159 155 145 131 173 213 239 244 245 252 256 244 236 232 237 245 237 227 232 233 243 245 243 268 279 274 264 235
126 120 121 124 123 122 126 134 142 148 151 152 154 155 163 171 187 218 229 221 234 248 251 251 254 257 256 243 230 225 237 239 233 227 227 242 248 247 247 265 271 268 268
118 115 115 118 117 118 119 128 141 147 151 156 164 164 174 190 209 229 240 232 231 239 249 255 253 252 256 246 241 232 236 238 241 236 233 241 243 242 251 253 262 264 280
116 116 119 109 116 120 126 140 141 142 165 176 179 177 183 196 208 223 234 233 233 238 243 250 258 256 247 249 264 250 235 235 241 243 241 237 219 218 245 260 278 270 263
131 129 114 111 114 122 139 154 163 170 171 190 200 184 185 198 208 220 223 225 234 244 249 246 253 259 263 226 100 306 279 257 249 246 233 226 210 205 209 224 243 244 250
112 99 95 99 113 111 96 188 180 181 194 208 208 202 199 203 210 225 224 232 233 236 248 245 240 242 239 185 197 236 262 259 256 256 248 251 241 218 221 224 226 239 247
103 90 86 88 97 101 99 251 206 201 212 223 224 214 216 208 212 222 225 233 239 239 239 239 239 236 221 200 213 247 241 247 251 254 242 242 252 259 238 240 250 256 260
84 90 99 101 106 114 29 40 221 240 259 260 257 233 229 218 217 220 227 234 235 247 242 234 230 230 210 201 211 228 238 233 246 250 242 228 229 233 214 217 235 251 260
83 94 102 100 96 96 70 339 271 290 299 307 294 275 266 258 245 225 221 230 232 241 244 236 233 220 198 195 207 225 248 240 248 245 231 232 231 221 211 214 229 245 250
90 95 92 88 88 84 72 27 344 338 335 332 313 302 279 264 248 223 217 228 238 244 249 236 236 226 218 192 200 207 236 253 254 260 249 227 203 218 221 219 231 242 259
107 105 101 97 101 94 62 44 11 347 348 355 345 325 304 282 273 259 254 246 243 242 247 247 254 242 219 199 198 206 221 245 265 271 284 291 203 228 232 230 240 252 262
122 113 116 121 128 124 41 350 2 350 340 335 326 324 329 312 285 260 258 251 245 250 252 247 251 257 226 189 189 203 221 234 247 273 287 280 255 256 246 240 241 243 242
121 120 131 141 115 86 15 354 347 342 313 288 290 286 274 274 280 257 259 252 249 260 272 268 269 278 277 240 189 205 220 228 239 256 267 263 261 261 261 254 242 238 243
116 162 166 216 134 155 302 309 314 303 291 271 246 246 248 241 264 280 296 278 303 267 263 292 294 282 280 286 268 220 227 242 249 249 245 245 243 245 240 237 230 229 232
169 180 175 222 256 234 205 233 258 265 274 268 254 249 239 225 225 217 259 329 260 254 235 239 262 285 264 236 264 257 235 223 220 227 245 247 244 243 239 239 237 230 233